Weather History for Anderson, SC

Change the Weather History Date:

Tuesday, June 18, 2013

  Actual Average Record
Temperature  
Mean Temperature 78 °F -  
Max Temperature 84 °F 88 °F 102 °F (1952)
Min Temperature 70 °F 67 °F 55 °F (1961)
Cooling Degree Days 12    
Growing Degree Days 28 (Base 50)    
Moisture  
Dew Point 70 °F    
Average Humidity 89    
Maximum Humidity 97    
Minimum Humidity 67    
Precipitation  
Precipitation 0.08 in - - ()
Sea Level Pressure  
Sea Level Pressure 29.91 in    
Wind  
Wind Speed 7 mph (SW)    
Max Wind Speed 15 mph    
Max Gust Speed -    
Visibility 10 miles    
Events Rain    
Averages and records for this station are not official NWS values.
T = Trace of Precipitation, MM = Missing Value Source: NWS Daily Summary

Daily Weather History Graph

Daily Weather History Graph

Search for Another Location

Airport:

Trip Planner

Search our weather history database for the weather conditions in past years. The results will help you decide how hot, cold, wet, or windy it might be!

Date:

Astronomy

Jun. 18, 2013 Rise Set
Actual Time 6:18 AM EDT 8:46 PM EDT
Civil Twilight 5:48 AM EDT 9:15 PM EDT
Nautical Twilight 5:12 AM EDT 9:51 PM EDT
Astronomical Twilight 4:32 AM EDT 10:31 PM EDT
Moon 3:38 PM EDT 2:14 AM EDT
Length of Visible Light 15h 26m
Length of Day
14h 27m
Waxing Gibbous, 70% of the Moon is Illuminated
Jun 18
Waxing Gibbous
Jun 23
Full
Jun 30
Last Quarter
Jul 8
New
Jul 15
First Quarter

Hourly Weather History & Observations

Time (EDT) Temp. Heat Index Dew Point Humidity Pressure Visibility Wind Dir Wind Speed Gust Speed Precip Events Conditions
12:15 AM 73.4 °F - 69.8 °F 88% 29.98 in 10.0 mi South 9.2 mph - N/A   Mostly Cloudy
12:56 AM 72.0 °F - 70.0 °F 93% 29.95 in 10.0 mi SSW 3.5 mph - N/A   Overcast
1:12 AM 71.6 °F - 69.8 °F 94% 29.96 in 10.0 mi South 3.5 mph - N/A   Mostly Cloudy
1:31 AM 71.6 °F - 69.8 °F 94% 29.96 in 10.0 mi SSE 3.5 mph - 0.00 in   Scattered Clouds
1:56 AM 71.1 °F - 70.0 °F 96% 29.93 in 10.0 mi SSW 4.6 mph - 0.00 in   Partly Cloudy
2:17 AM 71.6 °F - 69.8 °F 94% 29.96 in 10.0 mi Calm Calm - N/A   Mostly Cloudy
2:28 AM 71.6 °F - 69.8 °F 94% 29.96 in 10.0 mi Calm Calm - N/A   Overcast
2:56 AM 71.1 °F - 70.0 °F 96% 29.92 in 10.0 mi South 5.8 mph - N/A   Overcast
3:56 AM 71.1 °F - 70.0 °F 96% 29.91 in 10.0 mi SW 6.9 mph - N/A   Overcast
4:22 AM 71.6 °F - 69.8 °F 94% 29.93 in 10.0 mi SW 6.9 mph - N/A   Overcast
4:56 AM 71.1 °F - 70.0 °F 96% 29.91 in 10.0 mi SSW 4.6 mph - N/A   Overcast
5:06 AM 71.6 °F - 69.8 °F 94% 29.93 in 10.0 mi SSW 6.9 mph - N/A   Overcast
5:41 AM 71.6 °F - 69.8 °F 94% 29.94 in 10.0 mi WSW 4.6 mph - N/A   Overcast
5:56 AM 71.1 °F - 70.0 °F 96% 29.91 in 10.0 mi SW 5.8 mph - N/A   Overcast
6:03 AM 71.6 °F - 69.8 °F 94% 29.94 in 10.0 mi WSW 5.8 mph - N/A   Mostly Cloudy
6:24 AM 71.6 °F - 69.8 °F 94% 29.94 in 10.0 mi WSW 4.6 mph - N/A   Partly Cloudy
6:56 AM 71.1 °F - 69.1 °F 93% 29.92 in 10.0 mi West 3.5 mph - N/A   Partly Cloudy
7:37 AM 71.6 °F - 69.8 °F 94% 29.94 in 10.0 mi SSW 5.8 mph - N/A   Partly Cloudy
7:56 AM 72.0 °F - 70.0 °F 93% 29.92 in 10.0 mi SSW 6.9 mph - N/A   Scattered Clouds
8:03 AM 71.6 °F - 69.8 °F 94% 29.95 in 10.0 mi SSW 6.9 mph - N/A   Mostly Cloudy
8:14 AM 71.6 °F - 69.8 °F 94% 29.95 in 10.0 mi SSW 9.2 mph - N/A   Mostly Cloudy
8:56 AM 72.0 °F - 69.1 °F 91% 29.94 in 10.0 mi SSW 8.1 mph - N/A   Overcast
9:41 AM 71.6 °F - 69.8 °F 94% 29.97 in 5.0 mi SW 9.2 mph - 0.02 in Rain Light Rain
9:56 AM 71.1 °F - 70.0 °F 96% 29.95 in 10.0 mi WSW 6.9 mph - 0.03 in Rain Light Rain
10:56 AM 73.0 °F - 70.0 °F 90% 29.91 in 10.0 mi SSW 8.1 mph - 0.04 in   Partly Cloudy
11:05 AM 73.4 °F - 71.6 °F 94% 29.94 in 10.0 mi SW 8.1 mph - N/A   Mostly Cloudy
11:39 AM 75.2 °F - 71.6 °F 89% 29.93 in 10.0 mi SW 9.2 mph - N/A   Mostly Cloudy
11:45 AM 75.2 °F - 71.6 °F 89% 29.93 in 10.0 mi SW 8.1 mph - N/A   Mostly Cloudy
11:52 AM 75.2 °F - 71.6 °F 89% 29.93 in 10.0 mi SW 10.4 mph - N/A   Mostly Cloudy
11:56 AM 77.0 °F - 71.1 °F 82% 29.90 in 10.0 mi SW 13.8 mph - N/A   Mostly Cloudy
12:27 PM 78.8 °F - 71.6 °F 78% 29.92 in 10.0 mi WSW 12.7 mph - N/A   Scattered Clouds
12:56 PM 80.1 °F 83.6 °F 71.1 °F 74% 29.88 in 10.0 mi SW 12.7 mph - N/A   Scattered Clouds
1:34 PM 80.6 °F 84.6 °F 71.6 °F 74% 29.90 in 10.0 mi WSW 11.5 mph - N/A   Mostly Cloudy
1:56 PM 81.0 °F 84.9 °F 71.1 °F 72% 29.86 in 10.0 mi SSW 8.1 mph - N/A   Mostly Cloudy
2:56 PM 81.0 °F 85.2 °F 72.0 °F 74% 29.85 in 8.0 mi SSW 12.7 mph - 0.01 in Rain Light Rain
3:56 PM 82.9 °F 88.0 °F 72.0 °F 69% 29.82 in 10.0 mi SW 12.7 mph - 0.00 in   Mostly Cloudy
4:56 PM 84.0 °F 91.9 °F 75.0 °F 74% 29.82 in 10.0 mi WSW 6.9 mph - N/A   Overcast
5:56 PM 82.9 °F 87.5 °F 71.1 °F 67% 29.80 in 10.0 mi SW 15.0 mph - N/A   Clear
6:56 PM 81.0 °F 84.4 °F 70.0 °F 69% 29.82 in 10.0 mi WSW 11.5 mph - N/A   Mostly Cloudy
7:56 PM 77.0 °F - 71.1 °F 82% 29.83 in 10.0 mi SSW 12.7 mph - N/A   Overcast
8:56 PM 73.9 °F - 71.1 °F 91% 29.84 in 10.0 mi SSW 8.1 mph - N/A   Clear
9:56 PM 72.0 °F - 70.0 °F 93% 29.86 in 10.0 mi South 4.6 mph - N/A   Clear
10:56 PM 71.1 °F - 69.1 °F 93% 29.88 in 10.0 mi SSW 4.6 mph - N/A   Mostly Cloudy
11:56 PM 70.0 °F - 69.1 °F 97% 29.88 in 10.0 mi Calm Calm - N/A   Scattered Clouds